STOCKHOLM/ARLANDA current weather conditions

sailwx.info

Wind from 070 at 5 knots

Air temperature 4.0° C
Visibility: greater than 3.8 NM
Dewpoint 4.0° C
Present weather: Mist.

Last reported at 2014-Nov-20 19:20 UTC.
Time now 2014-Nov-20 20:52 UTC

Location: N 59°39' E 017°57'.
View on Google Maps.

See reports from other nearby stations

  
Tides and Currents Weather Stations Pressure Air Temp Water Temp Dewpoint Dewpoint Depression Visibility Wind Speed Wind Dir Waves Ship Positions
date/time (UTC)wind fromknots sea level pressurealtimeterstation pressurevisibilityair tempwater tempwave heightnotes
2014-Nov-20 19:20 070 5 3.8 4.0 Mist.
2014-Nov-20 18:50 050 4 2.7 4.0 Mist.
2014-Nov-20 18:20 070 5 2.7 4.0 Mist.
2014-Nov-20 17:50 060 4 2.7 4.0 Mist.
2014-Nov-20 17:20 050 5 2.2 4.0 Mist.
2014-Nov-20 16:50 050 5 2.1 4.0 Mist.
2014-Nov-20 16:20 040 6 2.7 4.0 Mist.
2014-Nov-20 15:50 050 5 2.3 4.0 Mist.
2014-Nov-20 15:20 030 5 1.9 4.0 Mist.
2014-Nov-20 14:50 050 5 2.1 4.0 Mist.
2014-Nov-20 14:20 060 5 1.3 4.0 Drizzle. Mist.
2014-Nov-20 13:50 050 4 1.6 4.0 Mist.
2014-Nov-20 13:20 050 5 2.7 4.0 Mist.
2014-Nov-20 12:50 050 6 2.7 4.0 Mist.
2014-Nov-20 12:20 050 5 3.2 4.0 Light drizzle.
2014-Nov-20 11:50 060 6 3.2 4.0 Light drizzle.
2014-Nov-20 11:20 040 5 3.2 4.0 Light rain. Mist.
2014-Nov-20 10:50 050 5 3.2 4.0 Light drizzle. Mist.
2014-Nov-20 10:20 060 6 3.8 4.0 Light drizzle. Mist.
2014-Nov-20 09:50 060 6 3.8 4.0 Light drizzle. Mist.
2014-Nov-20 09:20 060 6 1.6 4.0 Mist.
2014-Nov-20 08:50 020 6 1.5 3.0 Mist.
2014-Nov-20 08:20 360 5 1.1 3.0 Mist.
2014-Nov-20 07:50 020 4 2.4 3.0 Mist.
2014-Nov-20 07:20 030 4 3.8 3.0 Mist.
2014-Nov-20 06:50 020 4 4.3 3.0 Mist.
2014-Nov-20 06:20 350 5 4.9 3.0 Mist.
2014-Nov-20 05:50 020 5 5.4 3.0
2014-Nov-20 05:20 350 6 5.4 3.0 Light rain.
2014-Nov-20 04:50 010 5 5.4 3.0
2014-Nov-20 04:20 020 5 5.4 3.0
2014-Nov-20 03:50 040 5 5.4 4.0
2014-Nov-20 03:20 040 5 5.4 4.0
2014-Nov-20 02:50 040 5 5.4 4.0
2014-Nov-20 02:20 030 5 5.4 4.0
2014-Nov-20 01:50 040 6 5.4 4.0
2014-Nov-20 01:20 050 6 5.4 4.0
2014-Nov-20 00:50 060 6 5.4 4.0
2014-Nov-20 00:20 030 6 5.4 4.0
2014-Nov-19 23:50 030 6 5.4 4.0
2014-Nov-19 23:20 050 5 5.4 4.0
2014-Nov-19 22:50 060 6 5.4 4.0
2014-Nov-19 22:20 060 7 5.4 3.0
2014-Nov-19 21:50 060 4 5.4 3.0
2014-Nov-19 21:20 020 7 5.4 3.0
2014-Nov-19 20:50 010 7 5.4 3.0 Light drizzle.
2014-Nov-19 20:20 010 9 5.4 2.0 Light drizzle.
2014-Nov-19 19:50 010 9 5.4 3.0
2014-Nov-19 19:20 020 9 5.4 3.0
2014-Nov-19 18:50 010 9 5.4 3.0
2014-Nov-19 18:20 020 8 5.4 3.0
2014-Nov-19 17:50 030 8 5.4 2.0
2014-Nov-19 17:20 030 9 5.4 2.0
2014-Nov-19 16:50 020 10 5.4 2.0
2014-Nov-19 16:20 030 9 5.4 2.0
2014-Nov-19 15:50 030 8 5.4 2.0
2014-Nov-19 15:20 050 7 2.0
2014-Nov-19 14:50 050 9 2.0
2014-Nov-19 14:20 050 8 2.0
2014-Nov-19 13:50 050 7 5.4 3.0
2014-Nov-19 13:20 070 12 5.4 3.0
2014-Nov-19 12:50 060 9 5.4 4.0
2014-Nov-19 12:20 070 12 5.4 4.0
2014-Nov-19 11:50 090 12 5.4 4.0
2014-Nov-19 11:20 080 12 5.4 4.0
2014-Nov-19 10:50 090 13 5.4 4.0
2014-Nov-19 10:20 100 13 5.4 4.0
2014-Nov-19 09:50 080 10 5.4 4.0
2014-Nov-19 09:20 070 9 5.4 4.0
2014-Nov-19 08:50 070 9 5.4 3.0
2014-Nov-19 08:20 070 8 5.4 4.0
2014-Nov-19 07:50 080 9 5.4 4.0
2014-Nov-19 07:20 080 9 5.4 4.0
2014-Nov-19 06:50 080 9 5.4 4.0
2014-Nov-19 06:20 080 11 5.4 4.0
2014-Nov-19 05:50 080 9 5.4 4.0
2014-Nov-19 05:20 070 10 5.4 4.0
2014-Nov-19 04:50 060 11 5.4 4.0
2014-Nov-19 04:20 060 10 5.4 4.0
2014-Nov-19 03:50 080 11 5.4 4.0
2014-Nov-19 03:20 040 9 5.4 4.0
2014-Nov-19 02:50 050 9 5.4 4.0
2014-Nov-19 02:20 030 9 5.4 4.0
2014-Nov-19 01:50 050 8 5.4 4.0
2014-Nov-19 01:20 060 9 4.0
2014-Nov-19 00:50 060 9 4.0
2014-Nov-19 00:20 060 8 4.0
2014-Nov-18 23:50 060 7 4.0
2014-Nov-18 23:20 070 7 4.0
2014-Nov-18 22:50 040 7 5.4 4.0
2014-Nov-18 22:20 030 8 5.4 4.0
2014-Nov-18 21:50 050 8 4.9 4.0 Drizzle.
2014-Nov-18 21:20 050 5 5.4 5.0
2014-Nov-18 20:50 070 6 5.4 5.0
2014-Nov-18 20:20 080 6 5.4 5.0